NOAA 16 DEB, 41352

Orbit data source: Space-Track

NOAA 16 DEB, 41352 is space debris in SSO originally from a launch on Thu, 21 Sep 2000 UTC launched from the Air Force Western Test Range (AFWTR). Debris objects in space refer to the collection of defunct objects orbiting the Earth. Examples of debris include non-operational satellites, rocket bodies, and fragments generated from explosions, collisions, or faulty payload assembly.

Loading next visibility...
Identifier
41352, 2000-055HV
Orbit
SSO
Country
Flag of USUS
Related business
Manufacturer
Unknown
Mission
Spacecraft
Bus & Motor
Unknown
Mass
Unknown
Launch date (UTC)
2000-09-21 (25 years ago)
Launch vehicle
Unknown
Launch site
Air Force Western Test Range (AFWTR)
Object type
Payload
Rocket body
Debris
Shape & HBR
Unknown shape, 0.1 m
Radar Cross Section
Small (<0.1 m²)

Expand to show TLE details & history
Last TLE update: 22 hours ago

TLE from 22 hours ago
0 NOAA 16 DEB
1 41352U 00055HV  25301.26631373  .00010145  00000-0  25225-2 0  9996
2 41352  98.9616 128.2578 0035289  11.3076 348.8902 14.51587258509468
Epoch: 2025-10-28T06:23Z
TLE epoch observation values (Epoch: 2025-10-28T06:23:29.506Z)
Latitude
-0.00002°
Longitude
-4.47141°
Altitude
698.836 km
Speed
7.52 km/s
True Right ascension
08h 33m 01s
True Declination
0° 00' 00"
Sunlit
Object was in daylight at epoch
Visualization orbit readout
Latitude
Unknown
Longitude
Unknown
Altitude
Unknown
Speed
Unknown
Apparent Right ascension
Unknown
Apparent Declination
Unknown
Sunlit
N/A
Visualization observer readout
Local Sidereal Time
23:40:32
Azimuth
Unknown
Elevation
Unknown
Doppler factor
Unknown
Orbital elements
Apogee altitude
742.638 km
Perigee altitude
692.558 km
Semi-major axis
7,095.735 km
Eccentricity
0.00353
Inclination
98.9616°
RAAN
128.2578°
Arg. of periapsis
11.3076°
True anomaly
348.81194°
Mean anomaly
348.8902°
Eccentric anomaly
348.8511°
Mean motion
3.63117 °/min
Orbital period
99.14 mins
BSTAR
0.0025225
Loading maneuver chart data...
Computing Atmospheric mass density...

Documentation

Showing up to 5 results
|